Flag for Switzerland Weather past 2 weeks in Biel, Switzerland

Now
65 °F

Mild.


Feels Like: 65 °F
Forecast: 49 / 66 °F
Wind: 15 mph from East

Location: Grenchen

Current Time: Sep 2, 2014 at 12:48:53 PM

Latest Report: Sep 2, 2014 at 12:00 PM


Visibility: N/A

Pressure: 30.10 "Hg

Humidity: 59%

Dew point: 50 °F

Location of BielLocation

Historic Weather in Biel — Graph

°F

Biel temperature yesterday

Maximum temperature yesterday: 66 °F (at 5:00 PM)
Minimum temperature yesterday: 52 °F (at 11:00 PM)
Average temperature yesterday: 58 °F

Past Weeks' High & Low Weather Summary

 TemperatureHumidityPressure
High76 °F (Aug 28, 6:00 PM)98% (Aug 27, 6:00 AM)30.20 "Hg (Aug 27, 6:00 AM)
Low47 °F (Aug 25, 2:00 AM)41% (Aug 21, 3:00 PM)29.79 "Hg (Aug 26, 6:00 PM)
Average61 °F75%30.03 "Hg
* Reported Aug 18 11:00 AM — Sep 2 11:00 AM, Biel, Weather by CustomWeather, © 2014

Note: Actual official high and low records may vary slightly from our data, if they occured in-between our weather recording intervals... More about our weather records

Advertising

Biel weather history for previous 24 hours

 ConditionsComfort  
Time TempWeatherWind HumidityBarometerVisibility
11:00 AM
Sep 2
62 °FCool.13 mph67%30.12 "HgN/A
10:00 AM59 °FCool.9 mph78%30.14 "HgN/A
9:00 AM54 °FCool.7 mph90%30.16 "HgN/A
8:00 AM50 °FCool.2 mph94%30.17 "HgN/A
7:00 AM48 °FCool.6 mph94%30.17 "HgN/A
6:00 AM48 °FCool.3 mph97%30.16 "HgN/A
5:00 AM48 °FCool.5 mph97%30.16 "HgN/A
4:00 AM48 °FCool.2 mph97%30.16 "HgN/A
3:00 AM48 °FCool.1 mph96%30.16 "HgN/A
2:00 AM48 °FCool.1 mph92%30.17 "HgN/A
1:00 AM49 °FCool.2 mph93%30.17 "HgN/A
12:00 AM51 °FCool.1 mph92%30.17 "HgN/A
11:00 PM
Sep 1
52 °FCool.2 mph85%30.18 "HgN/A
10:00 PM54 °FCool.2 mph83%30.17 "HgN/A
9:00 PM56 °FCool.5 mph83%30.16 "HgN/A
8:00 PM59 °FCool.6 mph73%30.14 "HgN/A
7:00 PM63 °FMild.6 mph58%30.12 "HgN/A
6:00 PM66 °FMild.3 mph47%30.11 "HgN/A
5:00 PM66 °FMild.6 mph49%30.11 "HgN/A
4:00 PM64 °FMild.6 mph54%30.13 "HgN/A
3:00 PM64 °FMild.5 mph62%30.13 "HgN/A
2:00 PM62 °FCool.5 mph61%30.13 "HgN/A
1:00 PM62 °FCool.7 mph62%30.13 "HgN/A
12:00 PM60 °FCool.8 mph66%30.14 "HgN/A
Weather by CustomWeather, © 2014

See weather overviewHow to use our weather pages